Regional Weather Roundup
Issued by NWS

Home | Current Version | Previous Version | Text Only | Print | Product List | Glossary Off
Versions: 1 2 3 4 5 6 7 8 9 10 11 12 13 14 15 16 17 18 19 20 21 22 23 24 25 26 27 28 29 30 31 32 33 34 35 36 37 38 39 40 41 42 43 44 45 46 47 48 49 50

000
ASUS43 KLOT 281210
RWRIL

ILLINOIS REGIONAL WEATHER ROUNDUP
NATIONAL WEATHER SERVICE CHICAGO/ROMEOVILLE IL
700 AM CDT MON JUL 28 2014

NOTE: "FAIR" INDICATES FEW OR NO CLOUDS BELOW 12,000 FEET WITH NO
SIGNIFICANT WEATHER AND/OR OBSTRUCTIONS TO VISIBILITY.

* THESE STATIONS ARE NOT UNDER NWS QUALITY CONTROL. THEY ALSO MAY NOT
  REPORT WEATHER SUCH AS PRECIPITATION OR FOG.

ILZ001-002-007-009-015-016-024-281300-
NORTHWEST ILLINOIS

CITY           SKY/WX    TMP DP  RH WIND       PRES   REMARKS
MOLINE         SUNNY     62  53  72 N8        30.10R
6HR MIN TEMP:  62; 6HR MAX TEMP:  68;

STERLING*      SUNNY     59  52  77 N10G17    30.08R
SAVANNA*       SUNNY     60  52  74 N9G16     30.10R
$$

ILZ003-004-008-010-011-017-018-281300-
NORTH CENTRAL ILLINOIS

CITY           SKY/WX    TMP DP  RH WIND       PRES   REMARKS
ROCKFORD       MOSUNNY   57  50  77 N10       30.09R
6HR MIN TEMP:  57; 6HR MAX TEMP:  65;

FREEPORT*      SUNNY     53  51  91 NW8       30.11R
ROCHELLE*      SUNNY     57  51  82 N12       30.07R
DE KALB*       SUNNY     55  51  86 N10G17    30.06R
PERU*          SUNNY     59  54  84 N8        30.06R
$$

ILZ005-006-012>014-019>023-281300-
NORTHEAST ILLINOIS

CITY           SKY/WX    TMP DP  RH WIND       PRES   REMARKS
CHICAGO-OHARE  MOSUNNY   60  49  66 N16       30.01R
6HR MIN TEMP:  59; 6HR MAX TEMP:  66;

CHICAGO-MIDWAY MOSUNNY   62  50  64 N14       30.00R
6HR MIN TEMP:  62; 6HR MAX TEMP:  67;

AURORA         SUNNY     57  51  80 NW13      30.04R
6HR MIN TEMP:  57; 6HR MAX TEMP:  65;

LANSING*       SUNNY     60  50  69 N10       30.00R
JOLIET*        SUNNY     59  52  78 N8        30.03R
WAUKEGAN       SUNNY     56  48  74 NW6       30.01R
6HR MIN TEMP:  55; 6HR MAX TEMP:  63;

DUPAGE AIRPORT SUNNY     59  52  77 N12       30.02R
6HR MIN TEMP:  57; 6HR MAX TEMP:  65;

KANKAKEE*      SUNNY     59  54  82 NW5       30.01R
WHEELING       SUNNY     60  51  72 NW9       30.03R
6HR MIN TEMP:  59; 6HR MAX TEMP:  66;

MORRIS*        SUNNY     59  54  83 N6        30.02R
ROMEOVILLE*    SUNNY     59  51  76 N9        30.02R
NORTHERLY ISL    N/A     61  50  67 N14         N/A
$$

LMZ740>746-281300-
SOUTHERN LAKE MICHIGAN

STATION/POSITION SKY/WX   TEMP    WIND        PRES    VSBY  WAVE
                          AIR SEA DIR/SP/G                  HT/PER
                          (F)     (DEG/KT/KT) (MB)    (MI)  (FT/S)
SOUTHERN BUOY              58 59  340/ 21/ 25 1015.1R         7/ 8
WAUKEGAN HARBOR            58     330/ 10/ 12   N/A
HARRISON CRIB              60     330/ 23/ 26   N/A
BURNHAM HARBOR             61     320/ 13/ 15   N/A
CALUMET HARBOR             61     310/  8/ 15 1014.7R
MICHIGAN CITY              61     330/ 26/ 30   N/A
MICHIGAN CITY 6N           61 68  360/ 19/ 27   N/A           9/ 8
ST. JOSEPH                 60 65  350/ 17/ 21   N/A           8/ 7
$$

ILZ025>027-034>036-040-047-049-050-058-095>099-281300-
WEST-CENTRAL ILLINOIS

CITY           SKY/WX    TMP DP  RH WIND       PRES   REMARKS
QUINCY         CLEAR     61  59  93 NW7       30.09R
GALESBURG*     CLOUDY    62  57  85 N5        30.09R
MACOMB*        SUNNY     61  58  91 N6        30.10R
JACKSONVILLE*  SUNNY     63  62  95 NW5       30.07R
PITTSFIELD*    MOSUNNY   63  60  90 NW5       30.09R
$$

ILZ028>032-037-038-041>044-048-051>054-059>061-281300-
CENTRAL ILLINOIS

CITY           SKY/WX    TMP DP  RH WIND       PRES   REMARKS
PONTIAC        SUNNY     59  57  94 NW5       30.04R
DECATUR        SUNNY     63  57  81 N9        30.03R
PEORIA         SUNNY     64  57  78 N6        30.06R
6HR MIN TEMP:  63; 6HR MAX TEMP:  67;

LACON*         SUNNY     60  54  80 N10       30.05R
LINCOLN*       SUNNY     63  59  86 N6        30.03R
SPRINGFIELD    PTSUNNY   65  61  87 N7        30.06R
6HR MIN TEMP:  63; 6HR MAX TEMP:  67;

TAYLORVILLE    SUNNY     61  59  94 N8        30.04R
$$

ILZ033-039-045-046-055>057-062-063-281300-
EAST-CENTRAL ILLINOIS

CITY           SKY/WX    TMP DP  RH WIND       PRES   REMARKS
CHAMPAIGN      SUNNY     61  59  94 N13       30.01R
DANVILLE*      SUNNY     59  55  87 NW12      29.97R FOG
RANTOUL*       SUNNY     62  55  79 N10       30.02R
MATTOON        SUNNY     61  58  90 NW9       30.00R
PARIS*         SUNNY     60  59  96 NW5       30.00R
$$

ILZ079-100>102-281300-
SOUTHWEST ILLINOIS

CITY           SKY/WX    TMP DP  RH WIND       PRES   REMARKS
ALTON          SUNNY     64  63  94 NW6       30.06R
BELLEVILLE     SUNNY     67  61  83 NW12      30.04R
CAHOKIA*       SUNNY     68  60  75 NW10      30.05R
SPARTA*        SUNNY     63  59  88 CALM      30.06R
$$

ILZ064>066-069>071-074>076-080>082-084>086-088>090-092>094-281300-
SOUTH-CENTRAL ILLINOIS

CITY           SKY/WX    TMP DP  RH WIND       PRES   REMARKS
CARBONDALE     SUNNY     66  59  78 W7        30.04R
6HR MIN TEMP:  62; 6HR MAX TEMP:  70;

CAIRO*         SUNNY     69  62  78 W5        30.04R
EFFINGHAM*     SUNNY     64  59  84 NW6       30.03R
MARION         SUNNY     66  61  82 NW7       30.04R
MT. VERNON     SUNNY     64  57  77 NW3       30.03R
CENTRALIA*     SUNNY     71  61  70 NW7       30.03R
SALEM*         SUNNY    N/A N/A N/A N8        30.03R
METROPOLIS*    SUNNY     67  57  69 NW5       30.03R
$$

ILZ067-068-072-073-078-083-087-091-281300-
SOUTHEAST ILLINOIS

CITY           SKY/WX    TMP DP  RH WIND       PRES   REMARKS
LAWRENCEVILLE  SUNNY     65  61  87 NW9       29.99R
FLORA*         SUNNY     64  60  89 NW7       30.02R
FAIRFIELD*     SUNNY     66  63  88 NW6       30.01R
HARRISBURG*    SUNNY     64  62  94 NW6       30.03R
ROBINSON*      SUNNY     64  62  93 NW6       30.01R
CARMI*         SUNNY     64  63  94 NW6       30.00R
$$

ABBREVIATIONS USED IN REMARKS
   TC - TEMPERATURE IN CELSIUS
  WCI - WIND CHILL INDEX
   HX - HEAT INDEX
  VSB - VISIBILITY
$$




USA.gov is the U.S. government's official web portal to all federal, state and local government web resources and services.